Weather in Villasimius

Italy     39°08′36″N   9°31′10″E
temp.,
°C
wind,
m/s
gust,
m/s
humid.,
%
clouds,
%
prec.,
mm/h
press.,
hPa
HPBL,
m
12 may, wed
wed1223:00+11wnw248779 0.0 1016108
02:00+13wnw6127527 0.0 1016963
05:00+13wnw7126797 0.0 10161459
08:00+14wnw611684 0.1 10171180
11:00+19wnw710420 0.0 10161595
14:00+21wnw79345 0.0 10161777
17:00+21w79325 0.0 10151754
20:00+16w69527 0.0 1015845
13 may, thu
thu1323:00+12wsw34843 0.0 1015107
02:00+11wsw25959 0.0 1014135
05:00+11w239628 0.0 101392
08:00+15w39750 0.0 1012560
11:00+20w610454 0.0 10121355
14:00+22w7113883 0.0 10122221
17:00+20wnw7103696 0.0 10121500
20:00+15wnw38525 0.0 1013588
14 may, fri
fri1423:00+10wnw22760 0.0 101450
02:00+10wnw2283100 0.0 101445
05:00+9wnw229043 0.0 101437
08:00+14w2268100 0.0 1014219
11:00+19sw454691 0.0 1013947
14:00+19sw475595 0.1 10131148
17:00+19sw576232 0.2 1011876
20:00+16w49752 0.3 1011957
15 may, sat
sat1523:00+12wnw51468100 0.0 1013810
02:00+12wnw51277100 0.0 1014817
05:00+12wnw5117393 0.0 1015936
08:00+14wnw91568100 0.0 1015895
11:00+19wnw91343100 0.0 10161226
14:00+21wnw81036100 0.0 10151342
17:00+21wnw71137100 0.0 10151312
20:00+16wnw41056100 0.0 1015654
16 may, sun
sun1623:00+14wnw226799 0.0 101656
02:00+13w336954 0.0 101567
05:00+13w336670 0.0 101451
08:00+19wnw2351100 0.0 1013151
11:00+25w363515 0.0 1013947
14:00+28w58331 0.0 10131274
17:00+28w69303 0.0 10111514
20:00+21wnw22470 0.0 101218